Location: ???
(35.5616°N, 139.7977°E)
Time: 20:10:58
(UTC+00:00)

CZ-3 R/B - Pass Details

Date: 17 November 2025
Orbit: 547 x 10009 km, 28.3° (Epoch: 08 December)

Event Time Altitude Azimuth Distance (km) Brightness Sun altitude
Exits shadow 18:43:38 34° 237° (WSW) 4,668 4.5 -31.5°
Maximum altitude 18:52:10 57° 178° (S) 2,382 3.3 -29.8°
Drops below altitude 10° 18:59:29 10° 101° (E) 3,041 5.0 -28.3°
Sets 19:01:18 0° 96° (E) 3,644 5.8 -27.9°
